Regional Weather Roundup
Issued by NWS

Home | Current Version | Previous Version | Graphics & Text | Print | Product List | Glossary On
Versions: 1 2 3 4 5 6 7 8 9 10 11 12 13 14 15 16 17 18 19 20 21 22 23 24 25 26 27 28 29 30 31 32 33 34 35 36 37 38 39 40 41 42 43 44 45 46 47 48 49 50
000
ASUS45 KSLC 231010
RWRUT

UTAH REGIONAL WEATHER ROUNDUP
NATIONAL WEATHER SERVICE SALT LAKE CITY UT
400 AM MDT WED JUL 23 2014

UTZ001>011-023>025-231100-

NORTHERN UTAH

CITY           SKY/WX    TMP DP  RH WIND       PRES   REMARKS
HILL AFB       CLEAR     73  33  22 E16       30.14S
LOGAN          NOT AVBL
OGDEN          CLEAR     73  33  23 S13       30.11S
PROVO AIRPORT  CLEAR     66  45  45 CALM      30.17R
SALT LAKE CITY PTCLDY    74  38  27 SE9       30.09S
VERNAL         CLEAR     65  30  27 CALM      30.22S
WENDOVER       CLEAR     73  27  17 NE14      30.08S
HEBER CITY     CLEAR     52  41  66 CALM      30.27R
WEST JORDAN    CLEAR     75  41  29 SW5       30.14R

$$

UTZ012>022-026-027-231100-

SOUTHERN UTAH

CITY           SKY/WX    TMP DP  RH WIND       PRES   REMARKS
BRYCE CANYON   PTCLDY    52  34  50 W5        30.45S
CEDAR CITY     CLEAR     70  33  25 SE8       30.25F
MILFORD        CLEAR     69  33  26 S6        30.19F
MOAB/CYNLANDS  CLEAR     84  37  18 SE22G29   30.14R
PRICE          CLEAR     67  16  14 N3        30.26S
ST GEORGE      SUNNY     81  28  15 CALM      30.05S
KANAB            N/A     61  36  39 NE6       30.25F

$$

REGIONAL REPORTS     COLORADO/ARIZONA

CITY           SKY/WX    TMP DP  RH WIND       PRES   REMARKS
CRAIG, CO      CLEAR     47  37  68 CALM      30.34R
GRAND JUNCTION CLEAR     76  28  17 E13       30.21R
RIFLE          CLEAR     63  30  28 S6        30.30R
MONTROSE       PTCLDY    67  42  40 E10       30.34R
CORTEZ         CLEAR     73  45  36 S5        30.35F
PAGE, AZ       CLOUDY    85  33  15 S5        30.15R
GRAND CANYON   CLEAR     53  41  63 CALM      30.37F HAZE
KINGMAN        CLEAR     75  33  21 SW3       30.09S
FLAGSTAFF      PTCLDY    57  40  52 CALM      30.41F

$$

REGIONAL REPORTS    NEVADA/IDAHO/WYOMING

CITY           SKY/WX    TMP DP  RH WIND       PRES   REMARKS
LAS VEGAS, NV  CLEAR     89  29  11 SW6       29.92S
ELY            CLEAR     57  17  21 S10       30.29S
ELKO           CLEAR     59  36  42 SW6       30.16R
POCATELLO, ID  CLEAR     63  44  50 SW7       30.07S
BURLEY         CLEAR     60  47  61 SW8       30.07R
EVANSTON, WY   CLEAR     63  28  26 SE7       30.35F
ROCK SPRINGS   PTCLDY    70  22  16 NE5       30.34F

$$



USA.gov is the U.S. government's official web portal to all federal, state and local government web resources and services.